Time,TemperatureF,DewpointF,PressureIn,WindDirection,WindDirectionDegrees,WindSpeedMPH,WindSpeedGustMPH,Humidity,HourlyPrecipIn,Conditions,Clouds,dailyrainin,SoftwareType,DateUTC
2013-06-06 00:14:00,75.0,74.0,29.92,NE,53,1.0,-999.0,96,-99.99,,,0.00,weatherlink.com 1.10,2013-06-06 04:14:00,
2013-06-06 00:29:00,75.0,74.0,29.92,NE,55,4.0,-999.0,97,-99.99,,,0.00,weatherlink.com 1.10,2013-06-06 04:29:00,
2013-06-06 00:44:00,75.1,74.0,29.92,ENE,78,4.0,-999.0,96,-99.99,,,0.00,weatherlink.com 1.10,2013-06-06 04:44:00,
2013-06-06 00:59:00,75.1,74.0,29.91,ESE,103,0.0,-999.0,96,-99.99,,,0.00,weatherlink.com 1.10,2013-06-06 04:59:00,
2013-06-06 01:14:00,75.2,74.0,29.91,ESE,108,1.0,-999.0,96,-99.99,,,0.00,weatherlink.com 1.10,2013-06-06 05:14:00,
2013-06-06 01:29:00,75.2,74.0,29.90,ESE,118,0.0,-999.0,96,-99.99,,,0.00,weatherlink.com 1.10,2013-06-06 05:29:00,
2013-06-06 01:44:00,75.2,74.0,29.89,ESE,118,1.0,-999.0,96,-99.99,,,0.00,weatherlink.com 1.10,2013-06-06 05:44:00,
2013-06-06 01:59:00,75.2,74.0,29.89,ESE,118,3.0,-999.0,96,-99.99,,,0.01,weatherlink.com 1.10,2013-06-06 05:59:00,
2013-06-06 02:14:00,75.2,74.0,29.88,ESE,119,0.0,-999.0,96,-99.99,,,0.01,weatherlink.com 1.10,2013-06-06 06:14:00,
2013-06-06 02:29:00,75.2,74.0,29.88,ESE,118,2.0,-999.0,96,-99.99,,,0.01,weatherlink.com 1.10,2013-06-06 06:29:00,
2013-06-06 02:44:00,75.2,74.0,29.87,ESE,119,0.0,-999.0,97,-99.99,,,0.01,weatherlink.com 1.10,2013-06-06 06:44:00,
2013-06-06 02:59:00,75.1,74.0,29.87,ESE,119,0.0,-999.0,97,-99.99,,,0.02,weatherlink.com 1.10,2013-06-06 06:59:00,
2013-06-06 03:14:00,75.1,74.0,29.86,ESE,123,5.0,-999.0,97,-99.99,,,0.03,weatherlink.com 1.10,2013-06-06 07:14:00,
2013-06-06 03:29:00,75.1,74.0,29.85,ESE,119,0.0,-999.0,97,-99.99,,,0.05,weatherlink.com 1.10,2013-06-06 07:29:00,
2013-06-06 03:44:00,75.3,74.0,29.84,SE,132,1.0,-999.0,96,-99.99,,,0.06,weatherlink.com 1.10,2013-06-06 07:44:00,
2013-06-06 03:59:00,75.1,74.0,29.83,SE,128,4.0,-999.0,96,-99.99,,,0.07,weatherlink.com 1.10,2013-06-06 07:59:00,
2013-06-06 04:14:00,74.8,74.0,29.82,East,90,2.0,-999.0,96,-99.99,,,0.07,weatherlink.com 1.10,2013-06-06 08:14:00,
2013-06-06 04:29:00,74.7,73.0,29.82,SSE,152,7.0,-999.0,95,-99.99,,,0.08,weatherlink.com 1.10,2013-06-06 08:29:00,
2013-06-06 04:44:00,74.6,73.0,29.82,ESE,123,6.0,-999.0,95,-99.99,,,0.08,weatherlink.com 1.10,2013-06-06 08:44:00,
2013-06-06 04:59:00,74.7,73.0,29.82,ESE,117,2.0,-999.0,95,-99.99,,,0.09,weatherlink.com 1.10,2013-06-06 08:59:00,
2013-06-06 05:14:00,74.9,73.0,29.82,ESE,122,3.0,-999.0,95,-99.99,,,0.10,weatherlink.com 1.10,2013-06-06 09:14:00,
2013-06-06 05:29:00,75.1,74.0,29.82,ESE,115,1.0,-999.0,96,-99.99,,,0.12,weatherlink.com 1.10,2013-06-06 09:29:00,
2013-06-06 05:44:00,75.2,74.0,29.81,East,97,2.0,-999.0,96,-99.99,,,0.16,weatherlink.com 1.10,2013-06-06 09:44:00,
2013-06-06 05:59:00,74.4,73.0,29.82,SE,135,9.0,-999.0,94,-99.99,,,0.18,weatherlink.com 1.10,2013-06-06 09:59:00,
2013-06-06 06:14:00,74.1,72.0,29.83,ESE,121,5.0,-999.0,94,-99.99,,,0.23,weatherlink.com 1.10,2013-06-06 10:14:00,
2013-06-06 06:29:00,73.9,72.0,29.82,East,87,2.0,-999.0,95,-99.99,,,0.28,weatherlink.com 1.10,2013-06-06 10:29:00,
2013-06-06 06:44:00,73.8,72.0,29.81,East,94,3.0,-999.0,95,-99.99,,,0.33,weatherlink.com 1.10,2013-06-06 10:44:00,
2013-06-06 06:59:00,73.9,73.0,29.81,East,89,4.0,-999.0,96,-99.99,,,0.37,weatherlink.com 1.10,2013-06-06 10:59:00,
2013-06-06 07:29:00,73.5,72.0,29.82,ESE,121,2.0,-999.0,96,-99.99,,,0.70,weatherlink.com 1.10,2013-06-06 11:29:00,
2013-06-06 07:44:00,73.3,72.0,29.83,ESE,113,6.0,-999.0,96,-99.99,,,0.94,weatherlink.com 1.10,2013-06-06 11:44:00,
2013-06-06 07:59:00,73.1,72.0,29.82,SE,144,5.0,-999.0,96,-99.99,,,1.16,weatherlink.com 1.10,2013-06-06 11:59:00,
2013-06-06 08:14:00,73.3,72.0,29.83,SSE,157,9.0,-999.0,96,-99.99,,,1.26,weatherlink.com 1.10,2013-06-06 12:14:00,
2013-06-06 08:29:00,73.1,72.0,29.83,SSE,159,1.0,-999.0,96,-99.99,,,1.37,weatherlink.com 1.10,2013-06-06 12:29:00,
2013-06-06 08:44:00,73.3,72.0,29.83,SE,128,6.0,-999.0,96,-99.99,,,1.41,weatherlink.com 1.10,2013-06-06 12:44:00,
2013-06-06 08:59:00,73.3,72.0,29.83,ESE,121,6.0,-999.0,96,-99.99,,,1.41,weatherlink.com 1.10,2013-06-06 12:59:00,
2013-06-06 09:14:00,73.1,72.0,29.82,SE,144,0.0,-999.0,96,-99.99,,,1.42,weatherlink.com 1.10,2013-06-06 13:14:00,
2013-06-06 09:29:00,73.3,72.0,29.82,ESE,112,4.0,-999.0,96,-99.99,,,1.44,weatherlink.com 1.10,2013-06-06 13:29:00,
2013-06-06 09:44:00,73.4,72.0,29.81,ESE,120,7.0,-999.0,96,-99.99,,,1.45,weatherlink.com 1.10,2013-06-06 13:44:00,
2013-06-06 09:59:00,73.4,72.0,29.80,SE,136,7.0,-999.0,96,-99.99,,,1.45,weatherlink.com 1.10,2013-06-06 13:59:00,
2013-06-06 10:14:00,73.7,73.0,29.80,SE,137,6.0,-999.0,96,-99.99,,,1.45,weatherlink.com 1.10,2013-06-06 14:14:00,
2013-06-06 10:29:00,74.0,73.0,29.80,SE,124,6.0,-999.0,96,-99.99,,,1.45,weatherlink.com 1.10,2013-06-06 14:29:00,
2013-06-06 10:44:00,74.0,73.0,29.81,SE,146,5.0,-999.0,96,-99.99,,,1.51,weatherlink.com 1.10,2013-06-06 14:44:00,
2013-06-06 10:59:00,74.1,73.0,29.82,SSW,207,5.0,-999.0,96,-99.99,,,1.83,weatherlink.com 1.10,2013-06-06 14:59:00,
2013-06-06 11:14:00,74.1,73.0,29.81,South,190,1.0,-999.0,96,-99.99,,,1.91,weatherlink.com 1.10,2013-06-06 15:14:00,
2013-06-06 11:29:00,74.4,74.0,29.80,SSE,161,5.0,-999.0,97,-99.99,,,1.95,weatherlink.com 1.10,2013-06-06 15:29:00,
2013-06-06 11:44:00,74.4,74.0,29.79,SSE,167,5.0,-999.0,97,-99.99,,,2.07,weatherlink.com 1.10,2013-06-06 15:44:00,
2013-06-06 11:59:00,74.6,74.0,29.79,SE,130,4.0,-999.0,97,-99.99,,,2.12,weatherlink.com 1.10,2013-06-06 15:59:00,
2013-06-06 12:14:00,75.0,74.0,29.77,East,90,1.0,-999.0,97,-99.99,,,2.12,weatherlink.com 1.10,2013-06-06 16:14:00,
2013-06-06 12:29:00,75.3,74.0,29.77,SE,146,1.0,-999.0,97,-99.99,,,2.12,weatherlink.com 1.10,2013-06-06 16:29:00,
2013-06-06 12:44:00,75.8,75.0,29.76,SSE,155,0.0,-999.0,97,-99.99,,,2.13,weatherlink.com 1.10,2013-06-06 16:44:00,
2013-06-06 12:59:00,75.9,75.0,29.75,SE,136,5.0,-999.0,97,-99.99,,,2.13,weatherlink.com 1.10,2013-06-06 16:59:00,
2013-06-06 13:29:00,76.9,76.0,29.74,SSW,209,4.0,-999.0,96,-99.99,,,2.14,weatherlink.com 1.10,2013-06-06 17:29:00,
2013-06-06 13:44:00,77.1,76.0,29.74,South,189,5.0,-999.0,96,-99.99,,,2.16,weatherlink.com 1.10,2013-06-06 17:44:00,
2013-06-06 13:59:00,77.3,76.0,29.73,SSW,194,9.0,-999.0,95,-99.99,,,2.18,weatherlink.com 1.10,2013-06-06 17:59:00,
2013-06-06 14:14:00,77.6,76.0,29.72,South,186,4.0,-999.0,95,-99.99,,,2.21,weatherlink.com 1.10,2013-06-06 18:14:00,
2013-06-06 14:29:00,77.6,76.0,29.72,WSW,246,10.0,-999.0,95,-99.99,,,2.25,weatherlink.com 1.10,2013-06-06 18:29:00,
2013-06-06 14:44:00,78.3,77.0,29.71,South,171,7.0,-999.0,94,-99.99,,,2.26,weatherlink.com 1.10,2013-06-06 18:44:00,
2013-06-06 14:59:00,78.4,76.0,29.70,South,189,8.0,-999.0,93,-99.99,,,2.26,weatherlink.com 1.10,2013-06-06 18:59:00,
2013-06-06 15:14:00,78.5,76.0,29.69,South,182,6.0,-999.0,92,-99.99,,,2.26,weatherlink.com 1.10,2013-06-06 19:14:00,
2013-06-06 15:29:00,78.9,76.0,29.69,South,180,7.0,-999.0,89,-99.99,,,2.26,weatherlink.com 1.10,2013-06-06 19:29:00,
2013-06-06 15:44:00,79.3,75.0,29.70,SSW,209,15.0,-999.0,86,-99.99,,,2.26,weatherlink.com 1.10,2013-06-06 19:44:00,
2013-06-06 15:59:00,79.1,73.0,29.70,WSW,237,18.0,-999.0,82,-99.99,,,2.26,weatherlink.com 1.10,2013-06-06 19:59:00,
2013-06-06 16:14:00,78.7,71.0,29.69,South,188,12.0,-999.0,77,-99.99,,,2.26,weatherlink.com 1.10,2013-06-06 20:14:00,
2013-06-06 16:29:00,77.9,70.0,29.68,SW,215,13.0,-999.0,77,-99.99,,,2.26,weatherlink.com 1.10,2013-06-06 20:29:00,
2013-06-06 16:44:00,78.2,70.0,29.68,SW,230,13.0,-999.0,76,-99.99,,,2.26,weatherlink.com 1.10,2013-06-06 20:44:00,
2013-06-06 16:59:00,78.1,70.0,29.68,WSW,237,7.0,-999.0,76,-99.99,,,2.26,weatherlink.com 1.10,2013-06-06 20:59:00,
2013-06-06 17:14:00,77.8,70.0,29.68,SSW,211,10.0,-999.0,77,-99.99,,,2.26,weatherlink.com 1.10,2013-06-06 21:14:00,
2013-06-06 17:29:00,77.6,71.0,29.68,SW,215,11.0,-999.0,79,-99.99,,,2.26,weatherlink.com 1.10,2013-06-06 21:29:00,
2013-06-06 17:44:00,77.3,71.0,29.68,SW,220,10.0,-999.0,80,-99.99,,,2.26,weatherlink.com 1.10,2013-06-06 21:44:00,
2013-06-06 17:59:00,77.2,71.0,29.68,South,185,6.0,-999.0,82,-99.99,,,2.26,weatherlink.com 1.10,2013-06-06 21:59:00,
2013-06-06 18:14:00,76.5,72.0,29.67,SSW,193,7.0,-999.0,85,-99.99,,,2.26,weatherlink.com 1.10,2013-06-06 22:14:00,
2013-06-06 18:29:00,76.0,72.0,29.68,WSW,240,21.0,-999.0,87,-99.99,,,2.26,weatherlink.com 1.10,2013-06-06 22:29:00,
2013-06-06 18:44:00,75.3,72.0,29.67,SSW,203,12.0,-999.0,90,-99.99,,,2.26,weatherlink.com 1.10,2013-06-06 22:44:00,
2013-06-06 18:59:00,75.1,72.0,29.67,SSW,198,8.0,-999.0,91,-99.99,,,2.26,weatherlink.com 1.10,2013-06-06 22:59:00,
2013-06-06 19:14:00,75.4,73.0,29.66,SSW,211,10.0,-999.0,91,-99.99,,,2.26,weatherlink.com 1.10,2013-06-06 23:14:00,
2013-06-06 19:29:00,75.7,73.0,29.67,SW,223,7.0,-999.0,92,-99.99,,,2.26,weatherlink.com 1.10,2013-06-06 23:29:00,
2013-06-06 19:44:00,75.9,74.0,29.68,SSW,201,21.0,-999.0,92,-99.99,,,2.26,weatherlink.com 1.10,2013-06-06 23:44:00,
2013-06-06 19:59:00,75.9,74.0,29.68,SW,223,8.0,-999.0,92,-99.99,,,2.26,weatherlink.com 1.10,2013-06-06 23:59:00,
2013-06-06 20:14:00,75.8,73.0,29.68,SSW,194,4.0,-999.0,92,-99.99,,,2.26,weatherlink.com 1.10,2013-06-07 00:14:00,
2013-06-06 20:29:00,76.1,74.0,29.69,SW,227,12.0,-999.0,92,-99.99,,,2.26,weatherlink.com 1.10,2013-06-07 00:29:00,
2013-06-06 20:44:00,76.6,74.0,29.70,SSW,201,16.0,-999.0,91,-99.99,,,2.26,weatherlink.com 1.10,2013-06-07 00:44:00,
2013-06-06 20:59:00,76.6,74.0,29.70,SW,220,4.0,-999.0,91,-99.99,,,2.26,weatherlink.com 1.10,2013-06-07 00:59:00,
2013-06-06 21:14:00,76.4,74.0,29.71,SSW,200,4.0,-999.0,91,-99.99,,,2.26,weatherlink.com 1.10,2013-06-07 01:14:00,
2013-06-06 21:29:00,76.0,74.0,29.72,SSW,200,6.0,-999.0,92,-99.99,,,2.26,weatherlink.com 1.10,2013-06-07 01:29:00,
2013-06-06 21:44:00,75.6,74.0,29.73,South,191,9.0,-999.0,93,-99.99,,,2.26,weatherlink.com 1.10,2013-06-07 01:44:00,
2013-06-06 21:59:00,75.7,74.0,29.74,WSW,242,9.0,-999.0,93,-99.99,,,2.26,weatherlink.com 1.10,2013-06-07 01:59:00,
2013-06-06 22:14:00,76.2,74.0,29.75,SSW,208,7.0,-999.0,93,-99.99,,,2.26,weatherlink.com 1.10,2013-06-07 02:14:00,
2013-06-06 22:29:00,76.5,74.0,29.75,SW,223,7.0,-999.0,92,-99.99,,,2.26,weatherlink.com 1.10,2013-06-07 02:29:00,
2013-06-06 22:44:00,76.4,74.0,29.76,SW,224,5.0,-999.0,92,-99.99,,,2.26,weatherlink.com 1.10,2013-06-07 02:44:00,
2013-06-06 22:59:00,76.6,74.0,29.76,SSW,201,6.0,-999.0,91,-99.99,,,2.26,weatherlink.com 1.10,2013-06-07 02:59:00,
2013-06-06 23:14:00,76.5,74.0,29.76,WSW,245,6.0,-999.0,91,-99.99,,,2.26,weatherlink.com 1.10,2013-06-07 03:14:00,
2013-06-06 23:29:00,76.6,74.0,29.77,WSW,238,5.0,-999.0,90,-99.99,,,2.26,weatherlink.com 1.10,2013-06-07 03:29:00,
2013-06-06 23:44:00,76.6,74.0,29.77,WSW,239,8.0,-999.0,90,-99.99,,,2.26,weatherlink.com 1.10,2013-06-07 03:44:00,
2013-06-06 23:59:00,76.6,73.0,29.77,WSW,246,5.0,-999.0,89,-99.99,,,2.26,weatherlink.com 1.10,2013-06-07 03:59:00,